year,month,day,hour,G1,G2,G3,G4,G5,G6,G7,G8,G9,G10,G11,G12,B1
2013,6,20,0,12.99212578,12.92165972,13.0135,12.912,12.9625,13.07075,13.05625,13.0485,13.12425,13.13175,13.14675,13.592,11.21225
2013,6,20,1,12.47124507,12.40220495,12.515,12.43175,12.47325,12.557,12.5455,12.54075,12.6015,12.62425,12.63075,13.0605,10.80975
2013,6,20,2,12.06846349,12.00106274,12.117,12.04475,12.0825,12.157,12.145,12.1475,12.19375,12.21775,12.21625,12.6075,10.50575
2013,6,20,3,11.73942247,11.66708727,11.7755,11.71375,11.74425,11.80925,11.79875,11.8035,11.8435,11.8675,11.859,12.23225,10.26375
2013,6,20,4,11.4987197,11.42142608,11.5225,11.47775,11.497,11.54975,11.5395,11.5495,11.56925,11.6,11.57925,11.91975,10.0885
2013,6,20,5,11.38884313,11.31450219,11.411,11.39375,11.39875,11.42425,11.417,11.4365,11.43275,11.47025,11.44275,11.70575,10.0225
2013,6,20,6,11.45313253,11.37381667,11.4475,11.45425,11.44225,11.45275,11.439,11.4675,11.4465,11.49875,11.45125,11.6195,10.087
2013,6,20,7,11.72267498,11.62279846,11.66175,11.681,11.64275,11.61875,11.59825,11.62475,11.58575,11.6435,11.59025,11.682,10.27125
2013,6,20,8,12.18530518,12.0677725,12.0495,12.0915,12.0205,11.95475,11.91225,11.936,11.87475,11.9445,11.8565,11.8475,10.574
2013,6,20,9,12.91379755,12.77606336,12.7405,12.755,12.64475,12.49375,12.4255,12.43525,12.33975,12.39175,12.29075,12.18725,11.03325
2013,6,20,10,13.62487147,13.50525785,13.427,13.445,13.33775,13.187,13.09475,13.0915,12.97525,13.0095,12.85575,12.54175,11.50425
2013,6,20,11,14.01329148,13.93957797,13.91325,13.869,13.8075,13.7005,13.613,13.59175,13.49425,13.46075,13.3175,12.833,11.879
2013,6,20,12,14.08639731,14.0353729,14.045,14.004,13.974,13.933,13.865,13.8485,13.78725,13.762,13.63375,13.05975,12.11525
2013,6,20,13,14.31392648,14.2398046,14.23475,14.25025,14.191,14.14925,14.09475,14.10825,14.05075,14.09,13.986,13.3885,12.3315
2013,6,20,14,15.04912976,14.94093867,14.93375,14.94575,14.83925,14.71225,14.65025,14.6865,14.5885,14.6365,14.5575,13.937,12.795
2013,6,20,15,15.53294279,15.4942789,15.55825,15.46825,15.409,15.30275,15.212,15.18925,15.0905,15.0485,14.9505,14.4695,13.37075
2013,6,20,16,15.54744136,15.5416181,15.621,15.554,15.5365,15.52275,15.459,15.44,15.38725,15.344,15.24,14.671,13.694
2013,6,20,17,15.39024823,15.39326275,15.53025,15.46,15.461,15.47675,15.4295,15.41375,15.407,15.38075,15.327,14.745,13.68425
2013,6,20,18,15.10602165,15.09591712,15.2175,15.14175,15.172,15.2415,15.21375,15.19975,15.23175,15.22275,15.192,14.7905,13.4925
2013,6,20,19,14.76961996,14.73829122,14.8505,14.775,14.80525,14.878,14.85675,14.85025,14.8915,14.90375,14.906,14.7445,13.21025
2013,6,20,20,14.37020254,14.34329936,14.4585,14.39,14.428,14.507,14.489,14.4835,14.526,14.53225,14.53725,14.58225,12.85325
2013,6,20,21,13.99765665,13.95393819,14.055,13.991,14.02975,14.11525,14.1045,14.1035,14.155,14.17075,14.18375,14.3585,12.51575
2013,6,20,22,13.64968426,13.5972993,13.6925,13.62675,13.65925,13.732,13.719,13.71875,13.7635,13.786,13.8015,14.06925,12.19125
2013,6,20,23,13.3476847,13.29329389,13.389,13.336,13.3585,13.41925,13.40475,13.411,13.4425,13.464,13.471,13.77425,11.9285
2013,6,21,0,13.13895243,13.08085258,13.17725,13.136,13.1505,13.199,13.188,13.197,13.21425,13.2455,13.24,13.5285,11.7475
2013,6,21,1,12.98876826,12.93044712,13.02175,12.991,13.0025,13.04025,13.024,13.03775,13.04625,13.07225,13.063,13.3125,11.613
2013,6,21,2,12.85580561,12.79884225,12.8865,12.85725,12.86775,12.908,12.89475,12.90525,12.9085,12.93475,12.92,13.1345,11.4965
2013,6,21,3,12.7318019,12.67384941,12.759,12.72725,12.74175,12.78125,12.769,12.77775,12.78175,12.8065,12.7905,12.9845,11.38125
2013,6,21,4,12.60502662,12.54277639,12.627,12.59925,12.6125,12.65275,12.64025,12.65375,12.656,12.681,12.66325,12.8495,11.2585
2013,6,21,5,12.53056746,12.46527396,12.54325,12.52325,12.53075,12.561,12.55,12.567,12.56175,12.594,12.572,12.743,11.16775
2013,6,21,6,12.51931087,12.4511837,12.52225,12.51375,12.51125,12.53175,12.516,12.53525,12.52525,12.55925,12.53,12.683,11.13375
2013,6,21,7,12.63745682,12.56134283,12.617,12.61725,12.6005,12.59725,12.57925,12.60025,12.57625,12.61625,12.582,12.68625,11.19125
2013,6,21,8,12.78294924,12.71123585,12.76425,12.771,12.7465,12.73275,12.708,12.73,12.6905,12.725,12.67675,12.72625,11.30575
2013,6,21,9,13.08670889,13.00647398,13.04325,13.062,13.01475,12.971,12.9405,12.964,12.9135,12.95125,12.898,12.84625,11.50275
2013,6,21,10,13.77877605,13.65553958,13.57975,13.705,13.58125,13.467,13.42275,13.4625,13.37475,13.50375,13.3705,13.0935,11.909
2013,6,21,11,15.10437292,14.9589548,14.86375,14.90125,14.7195,14.4425,14.337,14.3205,14.17125,14.216,14.0725,13.54425,12.6365
2013,6,21,12,15.55712247,15.50570977,15.43675,15.37825,15.30525,15.15975,15.0495,15.003,14.872,14.772,14.586,13.90375,13.0445
2013,6,21,13,15.5979592,15.54522844,15.48975,15.44675,15.40925,15.3595,15.29275,15.26575,15.20325,15.13925,15.0005,14.1375,13.16675
2013,6,21,14,15.8790264,15.78455745,15.7205,15.68975,15.62575,15.56125,15.50175,15.492,15.44575,15.433,15.35225,14.49725,13.3105
2013,6,21,15,16.02790041,15.9600583,15.91775,15.861,15.81625,15.76725,15.70625,15.6905,15.63475,15.587,15.508,14.85325,13.48525
2013,6,21,16,16.19486691,16.11725689,16.06025,16.00325,15.96425,15.93975,15.88675,15.871,15.8335,15.8015,15.7245,15.103,13.657
2013,6,21,17,16.15884669,16.10119525,16.11725,16.01375,16.001,15.97975,15.91525,15.885,15.86825,15.839,15.77975,15.26075,13.7865
2013,6,21,18,15.91780407,15.88326591,15.9055,15.82925,15.8395,15.86425,15.81675,15.797,15.79425,15.75975,15.709,15.3055,13.75025
2013,6,21,19,15.57675734,15.54106429,15.594,15.48325,15.51975,15.59025,15.555,15.52575,15.5525,15.52825,15.50475,15.24525,13.4615
2013,6,21,20,15.05573512,15.01056858,15.06425,14.95175,15.00325,15.10925,15.0835,15.06275,15.11875,15.0965,15.089,15.03025,13.04925
2013,6,21,21,14.54214302,14.47691226,14.53,14.435,14.47775,14.57,14.554,14.5445,14.61075,14.61225,14.6215,14.7105,12.62525
2013,6,21,22,14.13791606,14.06312054,14.1195,14.027,14.05775,14.12025,14.10125,14.093,14.14575,14.15475,14.167,14.3695,12.22
2013,6,21,23,13.77888351,13.71134716,13.77675,13.69725,13.71875,13.77,13.7425,13.73875,13.77125,13.77875,13.77525,14.02325,11.9005
2013,6,22,0,13.43330026,13.37517879,13.4435,13.37075,13.407,13.47,13.454,13.4505,13.4775,13.48975,13.47475,13.69875,11.6555
2013,6,22,1,13.1387071,13.07525927,13.15925,13.0995,13.124,13.1765,13.16225,13.163,13.19325,13.2135,13.209,13.4115,11.467
2013,6,22,2,12.8904169,12.831422,12.92025,12.8665,12.893,12.94225,12.92625,12.933,12.95125,12.971,12.95975,13.1715,11.3155
2013,6,22,3,12.64823202,12.59192491,12.69075,12.64025,12.66725,12.731,12.71975,12.72925,12.749,12.775,12.7645,12.98175,11.17675
2013,6,22,4,12.34151357,12.29913021,12.42825,12.3785,12.41575,12.49325,12.482,12.4905,12.51375,12.54175,12.5295,12.78575,11.0205
2013,6,22,5,12.13595021,12.08549368,12.21475,12.1865,12.20725,12.26675,12.25325,12.271,12.28975,12.33375,12.324,12.5965,10.887
2013,6,22,6,12.12636294,12.05671573,12.1335,12.1235,12.12775,12.1705,12.15975,12.17775,12.1755,12.235,12.214,12.481,10.83525
2013,6,22,7,12.37377055,12.27374377,12.309,12.316,12.2775,12.26075,12.236,12.26175,12.23175,12.3,12.254,12.4635,10.954
2013,6,22,8,12.72729491,12.62818159,12.653,12.62725,12.58075,12.5265,12.47925,12.48575,12.43525,12.4735,12.4115,12.513,11.189
2013,6,22,9,13.02736077,12.93157122,12.923,12.921,12.86725,12.8075,12.758,12.76675,12.70025,12.72125,12.63,12.562,11.434
2013,6,22,10,13.51638088,13.40934653,13.366,13.38125,13.302,13.19775,13.13725,13.1465,13.0655,13.10775,12.97875,12.709,11.70525
2013,6,22,11,14.35176009,14.20136372,14.07525,14.083,13.969,13.799,13.712,13.7,13.6025,13.6435,13.5155,13.08975,12.185
2013,6,22,12,14.58507011,14.50144299,14.41325,14.3215,14.28525,14.19975,14.1,14.05775,13.96775,13.90375,13.7615,13.30975,12.42775
2013,6,22,13,14.66964527,14.56191968,14.47925,14.48975,14.4115,14.34575,14.287,14.30475,14.22825,14.23325,14.1035,13.504,12.5725
2013,6,22,14,15.3191155,15.20432406,15.20225,15.0505,14.9875,14.856,14.75825,14.72025,14.656,14.615,14.53575,13.89925,12.932
2013,6,22,15,14.97536575,14.92246106,14.856,14.807,14.793,14.8185,14.76375,14.7415,14.7065,14.62125,14.5065,13.98975,13.05325
2013,6,22,16,15.57065738,15.45022965,15.459,15.38975,15.26375,15.14775,15.08825,15.06525,15.0085,14.953,14.91625,14.238,13.51175
2013,6,22,17,15.69429878,15.6739324,15.70125,15.6285,15.58625,15.5575,15.4725,15.421,15.3685,15.2855,15.171,14.4895,14.122
2013,6,22,18,15.48417131,15.46050071,15.504,15.411,15.4135,15.43575,15.378,15.334,15.332,15.25875,15.1855,14.60425,13.9605
2013,6,22,19,15.13583244,15.08465683,15.104,15.022,15.03725,15.08925,15.05525,15.02425,15.051,15.018,14.98475,14.60525,13.628
2013,6,22,20,14.80544301,14.74133845,14.75975,14.672,14.68625,14.7275,14.6945,14.66975,14.691,14.6705,14.65125,14.4685,13.403
2013,6,22,21,14.43871005,14.36955634,14.385,14.29875,14.31525,14.361,14.3345,14.312,14.33725,14.31975,14.305,14.248,13.09075
2013,6,22,22,14.0118424,13.9404773,13.968,13.86525,13.8965,13.9615,13.936,13.91425,13.947,13.93025,13.92025,13.9675,12.7115
2013,6,22,23,13.47199308,13.39942209,13.47075,13.36675,13.3995,13.46925,13.45025,13.42825,13.47725,13.4705,13.47975,13.633,12.313
2013,6,23,0,12.86142556,12.8062012,12.89575,12.793,12.84575,12.94275,12.92575,12.905,12.959,12.95075,12.95475,13.21375,11.86525
2013,6,23,1,12.23019185,12.16887805,12.27625,12.199,12.2455,12.34875,12.3395,12.33175,12.38825,12.404,12.4135,12.73375,11.40675
2013,6,23,2,11.8751745,11.8026732,11.911,11.85475,11.87625,11.9355,11.92625,11.9295,11.95875,11.985,11.98975,12.35725,11.096
2013,6,23,3,11.64349152,11.57940474,11.67575,11.64225,11.663,11.71275,11.7045,11.7135,11.722,11.7445,11.72625,12.056,10.93625
2013,6,23,4,11.50165337,11.43831095,11.54075,11.526,11.538,11.58125,11.57625,11.59475,11.59075,11.625,11.606,11.8605,10.8935
2013,6,23,5,11.44360209,11.38464885,11.48825,11.48275,11.49225,11.52425,11.5175,11.5365,11.5255,11.56475,11.54275,11.791,10.88975
2013,6,23,6,11.42320893,11.36537971,11.47275,11.47575,11.48025,11.51175,11.50375,11.52825,11.5095,11.555,11.521,11.746,10.9765
2013,6,23,7,11.60233844,11.53214113,11.62975,11.66275,11.6345,11.62325,11.61075,11.64025,11.60725,11.6615,11.62525,11.79625,11.1905
2013,6,23,8,11.82362973,11.75915075,11.852,11.88075,11.84975,11.83625,11.82025,11.849,11.809,11.847,11.79575,11.909,11.446
2013,6,23,9,12.10332074,12.04590952,12.1415,12.1525,12.1305,12.11325,12.0925,12.1135,12.0685,12.1015,12.05225,12.1095,11.783
2013,6,23,10,12.17500492,12.12180845,12.226,12.222,12.21475,12.2265,12.211,12.22525,12.20175,12.2335,12.196,12.2835,11.97125
2013,6,23,11,12.18349815,12.12179663,12.21425,12.22625,12.211,12.21825,12.2045,12.22975,12.20425,12.24175,12.20775,12.3805,12.09975
2013,6,23,12,12.30850183,12.25004533,12.33625,12.3395,12.32675,12.33225,12.3185,12.341,12.3125,12.34075,12.29575,12.4505,12.4
2013,6,23,13,12.57698787,12.51101517,12.5825,12.59475,12.5595,12.54425,12.52725,12.5505,12.51075,12.52925,12.48575,12.6305,12.78075
2013,6,23,14,12.63773688,12.56654387,12.621,12.60125,12.588,12.6045,12.58875,12.5975,12.576,12.59175,12.5465,12.6875,12.97075
2013,6,23,15,12.88890103,12.80988317,12.8385,12.86425,12.81525,12.788,12.77875,12.81125,12.75625,12.7745,12.702,12.81,13.156
2013,6,23,16,13.03299479,12.96306339,13.006,12.98125,12.95825,12.981,12.963,12.972,12.94825,12.96025,12.91475,13.00475,13.3035
2013,6,23,17,12.99581539,12.92372715,12.97175,12.933,12.9145,12.94025,12.922,12.925,12.90625,12.91325,12.871,13.01675,13.20375
2013,6,23,18,12.82003994,12.75245591,12.82925,12.784,12.768,12.80225,12.7855,12.78375,12.769,12.77925,12.743,12.92025,13.02275
2013,6,23,19,12.54655852,12.48214124,12.58,12.503,12.5085,12.56525,12.54575,12.53125,12.53425,12.5425,12.526,12.7525,12.81675
2013,6,23,20,12.10530606,12.03482662,12.1335,12.05,12.067,12.12775,12.11025,12.0905,12.09975,12.11025,12.10875,12.44075,12.4175
2013,6,23,21,11.62911012,11.55669249,11.652,11.574,11.59725,11.6535,11.63625,11.62325,11.6305,11.64,11.632,12.00025,11.9335
2013,6,23,22,11.17460021,11.10559511,11.21125,11.13775,11.1715,11.22925,11.214,11.20225,11.2085,11.22525,11.21175,11.58025,11.516
2013,6,23,23,10.79316443,10.71738071,10.808,10.7515,10.7805,10.82475,10.8145,10.812,10.811,10.82825,10.807,11.2085,11.13475
2013,6,24,0,10.47716785,10.4081671,10.504,10.45125,10.49425,10.55125,10.5395,10.5355,10.539,10.55875,10.53825,10.8735,10.8605
2013,6,24,1,10.19078374,10.11345275,10.20075,10.155,10.18825,10.22825,10.21375,10.21825,10.2135,10.2315,10.2065,10.60725,10.5245
2013,6,24,2,9.922796737,9.844769806,9.93225,9.89325,9.9255,9.97175,9.96075,9.9655,9.9585,9.9795,9.95125,10.31975,10.269
2013,6,24,3,9.743230027,9.660592826,9.73425,9.703,9.73125,9.772,9.76325,9.77025,9.7615,9.7805,9.7395,10.09125,10.07225
2013,6,24,4,9.588795579,9.505794618,9.58375,9.55975,9.5825,9.6185,9.6095,9.62375,9.61125,9.63675,9.599,9.90525,9.9035
2013,6,24,5,9.420455546,9.345568177,9.44725,9.42075,9.44625,9.48325,9.473,9.48675,9.473,9.4995,9.4605,9.7785,9.7545
2013,6,24,6,9.340314246,9.257206985,9.34625,9.34675,9.3565,9.385,9.37725,9.398,9.37975,9.418,9.38,9.69975,9.69975
2013,6,24,7,9.669350064,9.552886896,9.574,9.61425,9.56775,9.53075,9.51325,9.5425,9.4885,9.52325,9.45175,9.738,9.806
2013,6,24,8,10.17717468,10.05987928,10.04875,10.087,10.02375,9.95875,9.93125,9.9635,9.88475,9.90775,9.7865,9.8705,10.00325
2013,6,24,9,10.7327234,10.62509929,10.6075,10.63525,10.57225,10.498,10.4635,10.487,10.39925,10.40525,10.284,10.20025,10.3485
2013,6,24,10,11.3180551,11.18390937,11.134,11.226,11.11375,10.99925,10.9575,10.9925,10.90525,10.9685,10.8275,10.649,10.71525
2013,6,24,11,12.61732507,12.47850642,12.32875,12.518,12.3725,12.0985,12.029,12.06575,11.904,11.98425,11.7755,11.45925,11.45075
2013,6,24,12,13.75556926,13.6865217,13.6175,13.62475,13.53475,13.3805,13.30425,13.283,13.1475,13.102,12.8845,12.224,12.26625
2013,6,24,13,13.84580421,13.76603506,13.8025,13.79775,13.70075,13.65625,13.612,13.62275,13.549,13.5505,13.445,12.78375,12.49825
2013,6,24,14,14.57828578,14.48302869,14.5275,14.49825,14.3445,14.19575,14.12875,14.134,14.0235,13.996,13.8535,13.41075,12.851
2013,6,24,15,14.59123193,14.58016222,14.685,14.624,14.57075,14.54,14.48475,14.45175,14.40025,14.3345,14.20175,13.62625,13.179
2013,6,24,16,14.57527513,14.54535111,14.65225,14.57975,14.542,14.54,14.503,14.46425,14.4515,14.41575,14.3365,13.80475,13.31325
2013,6,24,17,14.35055543,14.3008871,14.36775,14.27175,14.2715,14.30025,14.26475,14.22075,14.2345,14.201,14.16125,13.90725,13.20075
2013,6,24,18,14.09045593,13.99136883,13.96025,13.87125,13.87625,13.94125,13.9205,13.87525,13.91,13.8875,13.85225,13.7735,12.9505
2013,6,24,19,13.85333508,13.72713458,13.65425,13.5465,13.536,13.54275,13.506,13.463,13.47175,13.433,13.40425,13.4425,12.552
2013,6,24,20,13.42547527,13.32134763,13.27325,13.155,13.16575,13.1915,13.15125,13.1105,13.11825,13.06575,13.002,13.0415,12.08875
2013,6,24,21,12.9359373,12.83089652,12.79425,12.6795,12.70925,12.76175,12.73275,12.695,12.72575,12.68775,12.6485,12.64225,11.599
2013,6,24,22,12.30942489,12.21879536,12.241,12.11425,12.1545,12.22125,12.1925,12.154,12.196,12.16675,12.1355,12.239,11.00075
2013,6,24,23,11.61809561,11.54179438,11.603,11.48125,11.533,11.6225,11.60475,11.56375,11.61625,11.5885,11.5625,11.74125,10.41275
2013,6,25,0,11.00726311,10.93960955,11.052,10.9635,11.00625,11.08,11.07125,11.0515,11.09125,11.089,11.07,11.28425,9.992
2013,6,25,1,10.46743941,10.40998992,10.53825,10.4585,10.51225,10.60125,10.5945,10.579,10.6205,10.6265,10.60775,10.87875,9.7115
2013,6,25,2,10.05107795,9.975843652,10.09525,10.0305,10.06775,10.1455,10.1395,10.13175,10.16625,10.18225,10.1645,10.48975,9.40575
2013,6,25,3,9.699120276,9.623775957,9.7455,9.69575,9.72625,9.78925,9.78425,9.7825,9.803,9.821,9.798,10.146,9.15475
2013,6,25,4,9.459179511,9.384773701,9.5075,9.47575,9.4965,9.5455,9.5415,9.55325,9.5575,9.58775,9.55625,9.8845,9.017
2013,6,25,5,9.368560542,9.290688026,9.40925,9.39125,9.39975,9.43475,9.431,9.448,9.43875,9.473,9.4365,9.725,9.0135
2013,6,25,6,9.466539182,9.372922865,9.4525,9.47325,9.45375,9.45975,9.45,9.47975,9.44725,9.50025,9.4465,9.688,9.10625
2013,6,25,7,9.922911561,9.80867482,9.842,9.879,9.8155,9.7515,9.72125,9.756,9.6845,9.729,9.64425,9.796,9.353
2013,6,25,8,10.35735894,10.26170246,10.27325,10.3235,10.267,10.2095,10.1745,10.2065,10.121,10.15875,10.03875,10.0105,9.6565
2013,6,25,9,11.08631931,10.96072939,10.94325,10.9985,10.90275,10.78675,10.73125,10.755,10.66025,10.71275,10.59225,10.4635,10.1685
2013,6,25,10,11.65665202,11.55539256,11.54225,11.56025,11.47925,11.369,11.31075,11.324,11.21825,11.2225,11.0775,10.87675,10.59425
2013,6,25,11,12.39663783,12.26295949,12.18925,12.208,12.1045,11.9575,11.886,11.88925,11.7835,11.78925,11.652,11.26,11.0125
2013,6,25,12,13.00881808,12.88062766,12.73475,12.7525,12.6665,12.5405,12.46125,12.457,12.3455,12.32275,12.1505,11.6395,11.34425
2013,6,25,13,13.74738604,13.60566272,13.44825,13.46575,13.351,13.17325,13.07525,13.0775,12.94425,12.9385,12.7695,12.158,11.7625
2013,6,25,14,14.31705849,14.19342834,14.053,14.0085,13.91925,13.77125,13.67325,13.64575,13.53525,13.47625,13.307,12.64025,12.20075
2013,6,25,15,14.54150439,14.44328983,14.33475,14.28075,14.22325,14.12975,14.043,14.01375,13.93275,13.8735,13.72225,12.9925,12.42475
2013,6,25,16,14.67980353,14.58152928,14.50475,14.4365,14.3885,14.325,14.25475,14.22525,14.1715,14.1125,14.00675,13.32475,12.5495
2013,6,25,17,14.63906783,14.57220168,14.52575,14.4495,14.4365,14.4195,14.35475,14.31975,14.27925,14.21475,14.1115,13.56325,12.60075
2013,6,25,18,14.40537076,14.34257754,14.353,14.28,14.27725,14.2855,14.238,14.216,14.20675,14.1725,14.1035,13.629,12.53175
2013,6,25,19,14.14029232,14.08408127,14.1205,14.05275,14.0625,14.08825,14.05325,14.035,14.04175,14.0165,13.9695,13.6425,12.32725
2013,6,25,20,13.86086769,13.80721787,13.85325,13.78275,13.8035,13.844,13.81575,13.79975,13.815,13.7945,13.764,13.582,12.1095
2013,6,25,21,13.51155699,13.45189625,13.50925,13.43275,13.46075,13.5145,13.4895,13.476,13.50325,13.4975,13.48,13.43825,11.857
2013,6,25,22,13.10479971,13.04823478,13.1265,13.03725,13.07425,13.1425,13.11975,13.10275,13.1405,13.135,13.12275,13.19875,11.57625
2013,6,25,23,12.6191853,12.55425098,12.6435,12.558,12.60025,12.68525,12.67075,12.65925,12.71025,12.7155,12.7075,12.8905,11.2185
2013,6,26,0,12.30665476,12.22685894,12.3055,12.242,12.265,12.316,12.30075,12.302,12.3295,12.3535,12.35075,12.58175,10.9365
2013,6,26,1,11.9837534,11.91838796,12.00975,11.9245,11.965,12.02875,12.01325,12.00275,12.03175,12.03075,12.01675,12.26825,10.741
2013,6,26,2,11.415036,11.3607137,11.484,11.38225,11.446,11.5595,11.54775,11.53075,11.5935,11.594,11.5895,11.8865,10.3915
2013,6,26,3,10.89825394,10.82395055,10.94575,10.87775,10.9215,11.0075,11.00375,10.9965,11.05275,11.0785,11.0785,11.47125,9.953
2013,6,26,4,10.69040025,10.61163309,10.71725,10.69,10.70725,10.74725,10.743,10.7595,10.76575,10.8025,10.78475,11.17925,9.74575
2013,6,26,5,10.6457324,10.57201929,10.66275,10.66325,10.66725,10.7,10.69525,10.7195,10.70775,10.7495,10.71325,11.025,9.782
2013,6,26,6,10.77537772,10.68932037,10.751,10.77275,10.75825,10.7645,10.75025,10.77325,10.7515,10.8005,10.765,10.992,9.9685
2013,6,26,7,11.20595707,11.07104537,11.07475,11.11,11.025,10.97475,10.95075,10.96775,10.928,10.9855,10.92175,11.11,10.30925
2013,6,26,8,11.80277057,11.68034006,11.6605,11.662,11.5775,11.45375,11.395,11.39925,11.3035,11.3225,11.218,11.31925,10.48825
2013,6,26,9,12.05196759,11.96149069,11.95875,11.9465,11.89125,11.82575,11.772,11.7615,11.6915,11.68075,11.55675,11.46025,10.713
2013,6,26,10,12.3506526,12.25305517,12.272,12.31725,12.2245,12.123,12.06875,12.07625,12.01,12.07625,11.9325,11.6505,11.0075
2013,6,26,11,13.46575223,13.30422021,13.19375,13.3265,13.14425,12.891,12.80425,12.796,12.6755,12.7945,12.659,12.37675,11.714
2013,6,26,12,14.31001601,14.19600583,14.08775,13.95925,13.85675,13.64225,13.50675,13.42375,13.28425,13.1595,12.973,12.64075,12.097
2013,6,26,13,14.17939258,14.087221,14.03925,14,13.9215,13.838,13.7685,13.7425,13.675,13.62375,13.4435,12.69625,12.156
2013,6,26,14,14.65486072,14.52754005,14.5145,14.49575,14.35125,14.179,14.10625,14.11275,14.02975,14.02325,13.8975,13.11725,12.4395
2013,6,26,15,15.1162286,15.0249573,15.01125,14.88525,14.795,14.626,14.51725,14.4605,14.36325,14.25625,14.1245,13.522,12.695
2013,6,26,16,14.90365869,14.84980358,14.84975,14.754,14.709,14.68925,14.6175,14.56425,14.52875,14.43125,14.291,13.6165,12.7355
2013,6,26,17,15.08238751,14.95210552,14.908,14.80575,14.7165,14.64225,14.578,14.52725,14.5065,14.45975,14.38525,13.666,12.7345
2013,6,26,18,14.90692968,14.81360082,14.8,14.664,14.6325,14.56275,14.48525,14.42825,14.4105,14.3245,14.25125,13.68525,12.595
2013,6,26,19,14.48568661,14.39921333,14.36475,14.2465,14.2565,14.26275,14.213,14.16625,14.174,14.10525,14.0405,13.633,12.318
2013,6,26,20,14.08892046,13.97967169,13.93875,13.83075,13.84375,13.87075,13.8365,13.804,13.8355,13.79225,13.755,13.46475,12.0065
2013,6,26,21,13.79465212,13.66899554,13.585,13.47975,13.4935,13.516,13.47475,13.4465,13.4715,13.43825,13.4045,13.2725,11.67225
2013,6,26,22,13.46832234,13.34307018,13.28075,13.168,13.18425,13.20125,13.16,13.1355,13.15175,13.118,13.0815,13.03575,11.3285
2013,6,26,23,13.09931925,12.99392748,12.97275,12.85775,12.88025,12.90925,12.87075,12.84425,12.86375,12.824,12.7895,12.7665,11.059
2013,6,27,0,12.56195464,12.47571797,12.514,12.39425,12.43675,12.4985,12.47075,12.44375,12.4855,12.4565,12.4245,12.45725,10.749
2013,6,27,1,12.02731354,11.94691957,11.998,11.8935,11.94425,12.02425,12.005,11.98425,12.03475,12.01475,11.998,12.124,10.3705
2013,6,27,2,11.48584172,11.41239861,11.511,11.42875,11.475,11.562,11.5485,11.53925,11.588,11.59325,11.5795,11.76875,10.0345
2013,6,27,3,11.10556802,11.02523152,11.12325,11.055,11.09275,11.167,11.157,11.1575,11.19475,11.21425,11.198,11.441,9.78125
2013,6,27,4,10.8145722,10.7316045,10.8245,10.775,10.8015,10.8575,10.848,10.85375,10.87925,10.90475,10.88375,11.157,9.61125
2013,6,27,5,10.7596086,10.66353721,10.726,10.72075,10.71375,10.7285,10.71625,10.738,10.732,10.78225,10.74375,10.98075,9.57625
2013,6,27,6,10.96171904,10.85969489,10.89425,10.9045,10.8765,10.8535,10.83225,10.85675,10.81625,10.86775,10.81225,10.96875,9.7375
2013,6,27,7,11.31797243,11.20707046,11.2135,11.22775,11.18075,11.12675,11.09675,11.1175,11.05375,11.091,11.016,11.046,10.00025
2013,6,27,8,11.72385432,11.61681018,11.6105,11.626,11.56775,11.493,11.455,11.47875,11.39675,11.422,11.32975,11.21225,10.29725
2013,6,27,9,12.26713636,12.15402391,12.10525,12.14075,12.06425,11.96325,11.90425,11.9245,11.83375,11.86975,11.7555,11.50475,10.66775
2013,6,27,10,12.9764912,12.8518762,12.76975,12.8175,12.7135,12.56975,12.493,12.506,12.40025,12.448,12.30625,11.9405,11.11775
2013,6,27,11,13.75883382,13.63771566,13.55225,13.57875,13.461,13.272,13.176,13.18,13.0525,13.07725,12.91025,12.4975,11.6815
2013,6,27,12,14.52129521,14.40909592,14.312,14.31575,14.2095,14.03875,13.93675,13.9215,13.79875,13.80775,13.654,13.0625,12.27525
2013,6,27,13,14.7268832,14.6750774,14.6825,14.607,14.552,14.44825,14.36,14.31925,14.234,14.1625,14.01975,13.39475,12.62275
2013,6,27,14,14.68628966,14.63174124,14.6275,14.6035,14.568,14.53975,14.486,14.4715,14.43075,14.408,14.29475,13.61325,12.6855
2013,6,27,15,14.81279125,14.74412158,14.75,14.709,14.67625,14.63125,14.57625,14.56125,14.52925,14.52025,14.45475,13.893,12.711
2013,6,27,16,14.96643326,14.88437051,14.84575,14.81925,14.78225,14.743,14.68625,14.6795,14.64125,14.639,14.5735,14.123,12.793
2013,6,27,17,15.07956743,15.0012286,14.9835,14.928,14.894,14.8425,14.78775,14.76925,14.73525,14.71175,14.6465,14.2845,12.85775
2013,6,27,18,15.04176691,14.9726139,14.95275,14.88425,14.87025,14.85075,14.80225,14.78175,14.75675,14.7255,14.661,14.31925,12.835
2013,6,27,19,14.84956377,14.79802277,14.81475,14.754,14.757,14.7615,14.7195,14.70475,14.69375,14.6675,14.61275,14.2935,12.6965